Вернуться в каталог

SL-16 DEB

АктивенLEO
NORAD 18550·DEBRIS·🇷🇺 Russia

Запущен Mar 18, 1987 с Baikonur Cosmodrome

Loading…

Ближайшие Пролёты (ближайшие 24 часа)

TLE

СвежийSource: Space-Track

Эпоха: Sep 13, 2026, 16:26 UTC

1 18550U 87027F   26256.68529183  .00000101  00000-0  12511-3 0  9991
2 18550  71.0274 352.9458 0182796 310.8044  47.7325 13.79295737986184

Отслеживайте SL-16 DEB в реальном времени с AllMySat

Download on the App Store